Wind_Speed
27 27 27 29 30 32 35 37 35 34 34 36 36 37 37 39 40 42 44 45 44 40 41 40 37 35 35 35 34 33 34 36 39 42 42 42 44 44 47 48 47 48 50 52 51 51 53 49 46 48 51 51 47 43
30 30 30 31 33 36 33 32 34 35 35 36 37 39 40 41 41 43 44 44 40 36 37 37 35 33 31 32 32 30 32 35 34 34 35 37 39 39 39 43 45 48 48 49 49 51 53 50 49 46 49 44 41 38
32 32 32 34 32 33 35 35 36 37 37 37 38 42 41 39 39 45 45 41 37 34 33 34 31 30 29 30 30 30 31 30 29 29 29 30 32 33 31 32 37 41 42 46 48 51 53 55 53 51 50 49 46 41
32 31 33 34 35 36 35 37 37 40 39 41 41 40 40 41 44 44 40 36 34 32 31 35 30 29 29 29 29 29 28 27 26 27 26 22 22 26 27 29 32 35 37 40 44 46 51 54 57 54 52 51 51 47
35 36 37 38 38 39 38 39 41 42 41 42 41 40 42 44 42 40 35 34 31 30 29 30 29 29 28 27 24 24 25 25 25 23 23 21 21 26 25 30 29 32 33 39 37 40 48 52 56 59 57 56 53 49
38 38 40 41 41 37 38 38 40 41 44 42 41 41 40 39 38 32 32 30 28 28 28 28 27 27 27 26 26 24 23 24 23 22 19 19 22 28 27 25 23 30 35 38 40 42 44 48 54 58 60 58 55 50
38 38 37 34 33 34 38 40 41 43 41 40 39 36 36 33 30 30 28 26 26 28 28 27 26 25 26 23 21 19 17 15 13 14 14 17 19 23 19 11 18 28 34 38 40 41 43 44 49 56 58 59 56 49
40 39 35 36 38 40 38 37 38 40 38 36 33 33 30 28 27 26 23 23 25 27 27 26 24 23 21 21 21 19 16 13 14 15 19 20 18 23 15 18 21 28 33 36 38 38 39 44 45 49 55 57 56 51
36 38 39 38 34 34 35 35 34 36 38 40 36 29 27 25 23 21 20 22 25 25 25 24 21 20 20 20 16 10 9 11 11 16 20 20 20 22 24 23 19 19 25 31 32 32 32 38 44 48 51 52 54 51
38 35 31 34 35 34 33 32 33 34 34 31 27 26 25 23 20 18 19 22 23 24 23 20 20 19 13 12 7 6 10 14 16 18 23 21 21 22 27 25 21 23 26 28 31 29 30 31 32 39 45 44 45 49
36 35 33 34 35 35 35 33 33 32 31 27 24 23 22 20 16 17 19 21 23 22 21 19 19 13 7 6 6 10 13 16 16 26 17 30 26 26 20 27 26 27 26 26 29 29 25 28 30 34 38 38 36 41
44 37 35 34 33 34 32 30 28 27 23 24 22 21 20 16 15 17 20 20 22 20 18 18 14 9 4 5 8 8 13 16 18 25 27 30 34 28 12 10 16 19 14 18 23 25 25 29 30 30 32 31 29 34
36 35 33 29 29 25 25 25 25 23 22 21 19 18 14 13 16 18 21 20 17 16 15 10 9 4 3 6 7 11 18 19 21 24 24 37 35 15 4 9 3 7 8 14 20 21 27 29 28 24 23 27 29 25
31 31 28 25 25 24 26 24 22 21 21 19 16 12 11 14 16 19 19 16 15 14 10 8 5 2 3 5 10 10 16 23 27 28 30 31 38 16 14 7 6 4 4 8 10 15 22 28 28 23 22 27 28 26
30 27 23 22 25 24 22 20 20 19 17 14 11 10 12 14 16 16 15 14 13 12 10 7 4 1 0 6 9 9 16 23 28 24 24 33 37 9 10 10 8 10 8 7 11 15 16 19 22 25 25 24 24 25
26 27 29 23 22 18 18 19 18 15 14 10 9 9 10 13 14 14 14 14 12 11 9 7 2 1 2 6 5 11 18 20 24 25 24 36 27 14 14 13 9 9 7 6 6 9 12 16 21 23 26 26 24 28
26 25 19 17 16 15 16 17 14 13 12 10 10 9 10 13 15 15 13 13 12 10 8 4 6 3 1 4 5 11 12 12 17 18 21 28 24 19 13 13 11 11 11 11 8 10 12 13 15 20 28 28 22 20
18 18 18 20 17 17 16 14 13 12 12 11 11 10 12 13 16 16 13 11 12 9 7 6 9 3 2 3 5 8 7 13 16 18 20 23 25 10 13 12 17 18 14 4 9 14 15 13 14 22 30 27 21 16
19 19 18 16 16 15 13 12 11 11 12 12 12 12 13 14 16 15 12 11 9 8 6 11 10 4 3 2 5 7 7 9 14 15 16 19 22 18 14 16 14 13 12 13 22 15 19 19 16 15 13 15 26 29
18 18 17 15 14 13 11 10 10 11 12 13 13 13 12 15 15 14 10 11 9 8 11 15 9 5 7 6 5 4 6 8 12 13 15 18 19 15 18 12 7 7 7 8 12 14 15 14 13 12 17 17 30 28
18 16 14 14 13 10 8 9 14 14 13 10 12 12 12 14 15 11 10 8 8 9 11 13 10 8 7 6 4 3 5 3 6 9 13 15 17 19 18 16 13 7 7 5 9 13 12 10 9 9 10 11 12 23
16 14 14 14 12 11 10 11 11 12 12 10 11 11 11 12 12 10 9 7 8 10 13 13 10 6 9 10 6 1 1 1 5 7 8 10 13 15 16 12 13 12 11 8 6 9 11 8 8 9 8 8 8 10
16 15 14 12 11 10 13 18 16 14 13 11 10 10 11 11 10 9 7 9 9 10 16 17 12 8 9 6 5 3 4 4 4 4 4 5 7 10 10 13 15 15 8 10 10 9 8 10 11 9 12 13 15 17
18 16 14 10 9 11 14 13 12 13 12 11 11 10 11 12 10 9 9 9 9 14 20 20 15 13 11 8 7 6 5 3 5 5 6 6 5 4 4 5 7 9 8 6 4 7 6 9 10 9 10 13 19 16
19 18 15 12 11 12 10 10 12 12 12 11 11 11 11 12 10 9 10 8 8 17 22 21 19 16 12 10 6 1 4 6 5 6 7 7 7 6 5 4 3 3 4 4 1 2 3 7 8 8 9 8 12 13
20 18 15 12 14 14 12 12 11 12 11 11 11 11 14 12 11 11 11 10 12 20 23 23 19 17 14 10 7 2 4 5 5 3 5 7 8 10 10 10 8 6 6 6 4 3 5 4 6 10 14 15 14 12
21 17 15 15 15 14 13 14 13 13 13 12 12 13 14 12 10 11 11 12 12 19 21 22 21 18 11 7 6 5 6 6 1 2 5 6 6 8 9 11 11 8 5 5 6 7 7 7 10 11 9 10 10 10
21 20 19 15 16 15 13 14 14 15 12 12 13 14 12 10 10 12 12 12 12 16 19 20 20 17 12 8 6 8 9 5 2 2 4 6 8 9 7 11 10 10 9 4 2 4 6 7 8 9 9 9 9 11
25 21 18 17 17 13 13 13 13 11 11 12 13 11 9 9 11 12 9 9 13 15 17 17 18 16 12 10 8 7 4 4 3 2 1 3 8 7 4 9 10 10 11 11 7 5 5 5 4 2 3 4 5 6
27 21 17 17 16 16 16 12 12 11 12 10 8 8 10 12 14 13 11 12 14 16 18 17 15 13 12 12 9 9 7 5 2 1 3 5 4 4 5 6 6 7 7 6 6 4 1 1 1 2 3 3 4 6
26 21 20 21 19 17 14 14 12 11 9 8 9 12 12 12 12 10 10 11 12 12 14 14 13 13 13 11 8 6 6 6 3 2 5 6 6 5 4 5 6 5 4 5 6 6 5 4 4 4 5 6 7 7
24 24 24 23 21 15 14 13 10 9 8 11 12 12 12 9 9 10 10 11 11 11 11 11 11 11 10 8 10 10 8 7 4 4 3 2 4 6 7 7 7 8 8 5 4 7 8 7 7 9 11 7 6 6
30 29 23 21 18 15 12 9 9 13 12 13 12 13 11 12 14 14 14 13 12 9 8 9 10 10 10 10 9 8 7 6 5 3 3 7 9 8 7 6 6 7 4 3 5 7 10 11 13 13 12 13 13 14
Wind_Direction
296 297 298 300 300 303 307 307 304 305 304 305 304 304 304 304 305 306 306 308 307 306 304 304 303 301 301 296 292 287 280 276 274 273 271 268 264 260 255 249 245 243 242 243 239 238 238 237 236 240 248 253 253 256
295 295 296 299 299 302 305 305 305 303 303 304 305 306 306 305 302 305 306 309 309 308 305 305 304 305 303 298 295 291 284 280 279 276 275 275 272 267 260 254 249 246 241 240 240 239 239 238 236 237 242 246 251 247
292 294 295 297 298 298 301 301 302 302 303 303 304 305 303 301 306 309 307 308 308 308 304 305 309 307 303 299 297 292 288 289 286 281 277 273 270 270 265 257 252 248 245 242 236 235 237 238 237 234 235 237 238 244
291 293 296 299 298 298 298 299 298 300 299 299 301 301 299 302 305 309 308 309 308 309 308 307 310 309 307 302 297 292 288 286 287 283 281 280 275 267 261 254 245 244 240 238 238 234 233 235 235 233 234 236 239 239
288 290 293 295 294 295 296 298 301 300 296 299 298 298 300 303 307 309 308 307 309 310 311 308 307 309 308 304 300 294 290 287 286 285 285 278 273 267 257 248 242 240 238 237 233 233 231 231 233 232 231 234 237 240
286 287 291 293 294 295 298 301 303 298 298 298 295 299 302 305 308 305 306 307 309 310 310 312 310 310 308 305 300 295 291 287 287 290 287 278 267 265 264 262 254 243 237 234 231 229 229 228 230 231 231 232 233 232
284 287 289 293 293 296 302 305 305 298 294 294 297 301 305 307 303 304 305 309 312 314 313 312 312 313 313 311 305 297 295 292 286 293 290 293 292 288 288 291 237 237 239 238 237 232 230 228 227 230 231 232 232 229
284 285 283 292 297 299 305 302 302 298 296 297 304 306 305 300 301 303 306 311 315 316 314 312 315 318 317 312 310 298 294 295 288 297 296 298 297 292 306 278 255 253 251 243 237 232 228 229 227 230 231 232 231 228
281 285 289 292 293 300 306 300 299 298 300 300 301 299 298 301 304 304 306 313 318 318 317 317 318 319 319 321 322 317 291 292 291 286 291 295 293 292 281 283 279 254 249 251 250 242 233 225 225 226 230 231 232 231
279 282 288 290 290 297 296 296 298 300 302 302 300 300 299 303 302 302 308 316 318 320 321 322 320 323 325 330 343 353 326 316 308 311 317 327 338 311 294 280 262 253 245 236 237 241 235 230 230 225 227 231 230 227
274 284 288 283 288 290 290 292 299 300 301 300 300 301 301 301 298 301 310 317 318 318 322 322 323 321 320 303 323 331 331 326 330 5 342 359 352 341 289 280 273 256 250 243 238 232 224 213 215 219 224 226 225 225
274 279 281 282 284 287 288 294 299 300 299 297 297 300 300 295 296 303 314 316 316 320 320 321 318 315 294 302 332 335 354 347 348 349 349 350 347 351 5 310 269 244 250 244 228 224 217 203 202 209 221 225 224 223
269 269 273 276 282 295 288 293 293 293 296 294 298 297 292 292 302 311 314 316 315 318 318 314 314 267 282 338 353 7 5 10 3 1 0 353 353 351 101 341 278 258 244 213 206 210 205 202 199 206 210 212 216 221
265 268 269 273 280 285 288 283 283 289 290 294 293 286 285 300 310 313 314 313 317 320 310 304 295 265 4 353 353 360 16 21 16 4 357 342 356 353 358 15 51 77 135 174 192 198 193 201 210 214 210 202 204 210
259 260 262 279 280 285 282 275 284 286 289 288 282 281 297 308 315 315 312 311 315 315 292 296 306 242 355 0 4 16 24 21 12 17 352 353 0 23 22 43 77 93 100 134 163 167 176 188 190 181 187 197 200 197
254 262 256 275 281 274 269 274 277 280 280 278 277 286 299 314 321 318 309 309 309 305 278 278 235 228 325 348 11 31 23 22 3 348 6 5 12 70 41 46 56 71 84 119 150 179 184 189 187 185 184 186 188 187
255 273 269 268 267 261 265 270 271 270 273 273 269 278 298 317 324 326 315 306 300 286 265 245 194 185 6 335 24 40 33 15 6 2 12 8 24 43 39 44 58 63 77 90 141 161 170 176 177 175 176 170 162 177
263 251 251 261 257 261 264 261 265 271 276 267 263 270 287 310 318 321 315 301 300 272 264 206 196 188 280 319 51 38 54 29 19 21 26 24 28 52 38 61 92 67 70 115 174 160 145 137 151 176 181 184 176 178
245 242 253 251 253 254 252 260 265 273 278 268 264 270 286 305 313 318 309 295 284 250 230 191 191 200 216 162 85 70 62 22 13 15 36 37 40 44 42 73 75 85 56 60 126 111 138 131 140 157 156 164 177 158
228 246 246 243 240 239 252 261 271 270 280 272 266 269 281 301 312 314 296 289 251 234 197 188 182 182 182 180 138 75 11 2 11 30 39 41 40 44 50 61 85 105 110 109 89 82 100 109 119 109 123 146 166 172
235 238 232 224 224 238 253 271 278 269 278 269 261 271 287 298 315 312 302 271 223 218 198 179 176 179 187 181 158 172 198 332 11 32 36 34 33 45 53 57 64 124 96 123 162 123 122 128 133 129 131 136 136 180
224 218 213 215 233 245 248 269 287 271 272 269 264 270 288 306 315 305 295 240 203 203 194 178 183 194 196 163 146 151 206 336 340 15 42 41 31 40 44 51 44 46 72 90 168 165 167 152 168 174 179 159 156 169
205 208 216 230 246 246 263 275 273 259 263 260 262 275 299 312 303 297 268 216 210 201 187 179 176 170 156 158 164 146 95 16 339 7 33 47 34 36 35 29 27 32 62 91 142 185 197 228 207 198 215 212 208 208
212 218 220 228 246 279 281 280 261 249 250 254 263 277 302 311 293 285 240 221 210 194 181 173 178 181 180 160 131 99 75 14 359 3 2 360 4 7 21 28 28 34 31 55 119 143 152 184 210 226 230 223 216 211
219 223 226 236 258 286 279 280 262 253 247 257 266 277 300 304 282 265 227 217 196 188 180 175 183 183 182 176 170 149 328 304 340 11 9 13 22 23 13 13 11 3 12 16 47 196 174 207 217 212 213 203 208 223
226 227 225 242 252 278 259 265 269 251 246 257 267 281 299 291 269 243 221 207 193 185 185 185 187 193 191 190 202 249 320 289 277 312 345 336 334 337 329 321 309 287 263 261 270 260 204 210 227 217 213 213 218 228
228 225 238 248 255 278 254 253 261 247 248 259 272 284 292 277 254 221 209 204 195 191 192 195 201 205 198 189 168 257 297 300 244 320 313 325 358 8 5 3 1 353 318 267 235 225 227 219 206 206 225 233 235 238
233 238 246 246 265 265 248 252 251 250 249 263 275 281 271 256 217 204 205 204 203 197 200 203 202 201 206 228 257 277 271 194 240 333 330 13 23 14 17 13 19 24 24 7 295 275 268 269 272 270 269 268 263 257
235 238 242 251 258 241 239 247 239 235 257 272 271 256 233 209 195 186 182 185 194 196 197 194 199 207 210 230 230 215 179 204 300 299 301 338 340 351 19 28 36 42 48 45 44 35 29 11 351 314 270 258 255 248
230 234 244 251 240 223 228 237 239 256 278 266 243 214 195 183 180 176 187 191 189 190 195 198 198 208 222 228 223 207 203 204 255 189 326 336 12 44 40 33 35 38 46 50 65 81 94 37 330 321 304 295 290 275
226 232 234 228 218 218 231 235 242 268 250 230 199 182 167 174 178 167 170 179 188 194 200 204 204 208 218 221 206 188 204 201 195 111 104 81 62 38 10 352 345 343 349 355 346 326 308 296 302 316 321 311 302 294
212 208 213 206 204 215 225 224 248 234 208 172 164 158 164 166 152 150 152 160 168 176 186 188 186 191 194 187 176 186 182 170 157 146 124 36 339 328 320 315 317 316 312 308 323 325 309 314 316 321 336 320 289 294
190 196 196 193 203 210 214 215 203 172 133 157 166 157 148 140 141 141 146 152 156 163 171 168 165 165 167 164 161 161 152 156 158 162 272 306 319 322 316 317 320 315 290 318 332 330 331 326 323 320 317 320 318 318
Height
5809 5807 5805 5803 5801 5799 5796 5793 5790 5787 5784 5781 5777 5774 5771 5767 5763 5759 5754 5748 5743 5739 5733 5729 5726 5722 5719 5715 5712 5709 5705 5701 5698 5696 5697 5697 5698 5700 5702 5707 5711 5716 5722 5727 5733 5735 5741 5748 5754 5761 5766 5772 5779 5784
5801 5800 5798 5796 5794 5791 5788 5785 5782 5779 5776 5772 5769 5765 5761 5757 5752 5748 5744 5737 5732 5728 5723 5719 5716 5712 5708 5703 5700 5697 5693 5688 5688 5687 5686 5685 5685 5686 5689 5692 5696 5701 5706 5711 5718 5724 5727 5733 5741 5748 5753 5760 5766 5773
5793 5792 5790 5788 5785 5782 5779 5776 5773 5770 5767 5763 5760 5756 5751 5747 5742 5738 5732 5726 5722 5719 5714 5710 5707 5703 5698 5693 5690 5687 5682 5681 5679 5677 5676 5675 5674 5675 5676 5679 5682 5686 5692 5696 5703 5708 5713 5719 5727 5735 5741 5748 5756 5762
5785 5783 5781 5779 5776 5774 5771 5768 5764 5761 5757 5754 5750 5746 5742 5738 5733 5727 5722 5717 5713 5709 5705 5700 5698 5694 5689 5685 5681 5678 5674 5672 5670 5668 5667 5667 5666 5665 5666 5667 5669 5673 5677 5682 5688 5694 5700 5705 5712 5722 5728 5735 5743 5751
5776 5774 5772 5770 5767 5764 5761 5758 5755 5751 5747 5744 5740 5735 5731 5727 5722 5718 5713 5709 5705 5702 5697 5693 5689 5686 5681 5676 5673 5669 5666 5664 5662 5661 5660 5660 5658 5655 5654 5655 5658 5662 5666 5669 5675 5680 5685 5692 5698 5706 5715 5722 5731 5739
5765 5764 5762 5759 5756 5753 5751 5748 5744 5740 5737 5733 5729 5725 5721 5717 5713 5709 5705 5702 5697 5693 5691 5687 5682 5678 5673 5669 5666 5662 5659 5657 5656 5655 5654 5652 5649 5646 5646 5648 5653 5652 5653 5656 5662 5667 5672 5679 5684 5691 5700 5709 5717 5727
5754 5753 5751 5749 5746 5743 5740 5737 5733 5729 5726 5723 5719 5715 5712 5708 5704 5701 5698 5694 5691 5687 5683 5679 5675 5671 5666 5662 5658 5657 5655 5654 5652 5650 5648 5646 5644 5640 5642 5645 5641 5641 5642 5645 5650 5656 5662 5668 5676 5679 5687 5696 5705 5716
5744 5742 5740 5739 5737 5734 5729 5726 5723 5720 5717 5714 5710 5707 5703 5700 5696 5694 5692 5688 5685 5681 5677 5673 5669 5666 5661 5656 5653 5652 5651 5649 5648 5646 5644 5641 5639 5635 5636 5634 5635 5635 5634 5635 5638 5644 5651 5656 5663 5669 5676 5683 5693 5704
5733 5733 5731 5729 5727 5724 5721 5717 5714 5712 5709 5705 5701 5699 5696 5693 5690 5688 5686 5683 5679 5677 5671 5668 5664 5661 5657 5653 5650 5648 5647 5647 5645 5641 5638 5636 5634 5630 5627 5626 5625 5625 5626 5628 5631 5636 5643 5647 5652 5659 5665 5673 5683 5693
5723 5722 5720 5719 5717 5714 5712 5708 5706 5703 5700 5696 5694 5692 5689 5687 5685 5684 5681 5678 5674 5671 5666 5663 5659 5656 5655 5651 5649 5648 5647 5643 5639 5638 5634 5631 5627 5621 5617 5616 5616 5615 5615 5616 5619 5626 5633 5639 5645 5653 5658 5665 5674 5683
5712 5711 5710 5709 5708 5705 5703 5700 5697 5695 5692 5689 5687 5685 5683 5681 5680 5678 5676 5673 5670 5666 5662 5659 5656 5653 5653 5651 5649 5647 5645 5641 5639 5637 5631 5626 5620 5614 5608 5604 5604 5605 5605 5608 5612 5618 5623 5629 5637 5645 5652 5658 5667 5675
5701 5700 5701 5699 5698 5696 5694 5692 5690 5688 5685 5684 5681 5679 5678 5677 5676 5675 5671 5669 5666 5662 5658 5656 5653 5652 5651 5649 5648 5647 5645 5641 5638 5633 5626 5621 5613 5605 5598 5597 5592 5595 5600 5601 5605 5611 5618 5623 5629 5638 5645 5654 5662 5667
5690 5690 5691 5690 5689 5688 5686 5685 5683 5682 5679 5677 5675 5674 5674 5674 5672 5669 5667 5664 5662 5659 5656 5654 5652 5651 5651 5650 5649 5648 5646 5641 5636 5631 5624 5618 5609 5603 5598 5595 5593 5594 5595 5596 5601 5606 5613 5620 5626 5634 5641 5648 5655 5661
5680 5681 5682 5682 5681 5680 5679 5678 5677 5675 5674 5672 5671 5671 5670 5669 5667 5665 5662 5660 5658 5656 5653 5652 5651 5651 5651 5650 5649 5647 5645 5639 5635 5630 5625 5616 5607 5604 5600 5597 5596 5596 5597 5599 5602 5605 5611 5618 5625 5632 5636 5642 5650 5657
5671 5672 5674 5674 5673 5672 5671 5671 5670 5669 5669 5668 5668 5667 5667 5665 5663 5661 5659 5657 5655 5653 5651 5650 5651 5651 5651 5651 5649 5647 5644 5640 5635 5630 5624 5616 5606 5602 5601 5600 5600 5599 5601 5603 5606 5609 5614 5618 5623 5629 5634 5640 5646 5653
5663 5664 5666 5666 5665 5665 5665 5665 5665 5664 5664 5664 5664 5664 5663 5662 5660 5657 5655 5653 5652 5651 5649 5649 5650 5651 5651 5650 5648 5647 5645 5641 5637 5632 5627 5619 5607 5603 5605 5604 5604 5604 5606 5608 5610 5612 5615 5619 5624 5629 5634 5639 5646 5652
5655 5656 5657 5659 5659 5659 5660 5660 5660 5660 5659 5660 5660 5660 5660 5658 5656 5654 5652 5650 5649 5648 5647 5648 5650 5651 5650 5650 5648 5647 5646 5643 5640 5636 5631 5623 5615 5615 5612 5611 5610 5610 5610 5611 5612 5615 5618 5623 5627 5631 5636 5643 5647 5652
5648 5650 5652 5653 5653 5654 5655 5655 5656 5655 5655 5656 5656 5657 5656 5655 5653 5651 5648 5647 5646 5645 5645 5647 5649 5650 5649 5649 5649 5648 5646 5644 5642 5639 5635 5629 5623 5620 5617 5615 5615 5615 5616 5616 5617 5619 5623 5627 5630 5632 5636 5641 5645 5650
5643 5644 5646 5647 5648 5650 5651 5651 5651 5651 5652 5652 5652 5653 5652 5651 5650 5647 5645 5643 5642 5642 5643 5646 5648 5648 5648 5649 5648 5648 5648 5647 5646 5643 5638 5634 5630 5626 5623 5621 5622 5621 5621 5620 5621 5625 5628 5631 5634 5636 5637 5639 5644 5651
5637 5639 5640 5642 5644 5646 5647 5647 5647 5648 5648 5648 5648 5649 5649 5648 5646 5644 5642 5640 5639 5640 5642 5645 5647 5648 5648 5648 5649 5649 5650 5649 5648 5645 5643 5640 5637 5633 5630 5628 5629 5628 5627 5628 5630 5632 5633 5636 5639 5641 5642 5646 5650 5653
5631 5634 5636 5638 5640 5642 5643 5643 5643 5644 5644 5644 5644 5644 5645 5643 5642 5640 5639 5637 5638 5639 5642 5645 5647 5648 5648 5649 5649 5649 5650 5650 5650 5649 5647 5644 5643 5639 5636 5635 5634 5634 5634 5634 5636 5637 5640 5642 5644 5645 5649 5652 5654 5656
5627 5630 5633 5635 5637 5638 5639 5639 5640 5640 5640 5641 5641 5641 5641 5640 5638 5637 5636 5636 5637 5638 5640 5644 5646 5647 5648 5648 5648 5650 5650 5650 5650 5650 5650 5648 5647 5644 5642 5641 5639 5639 5638 5637 5637 5640 5642 5645 5648 5650 5651 5654 5657 5659
5624 5627 5630 5632 5633 5634 5636 5635 5635 5636 5636 5637 5638 5638 5638 5637 5636 5635 5634 5634 5635 5636 5639 5642 5645 5646 5648 5648 5649 5650 5651 5650 5650 5649 5649 5650 5650 5649 5647 5644 5642 5642 5643 5642 5642 5642 5643 5645 5648 5651 5654 5656 5659 5661
5621 5624 5626 5628 5629 5630 5630 5629 5630 5631 5633 5634 5635 5635 5634 5634 5633 5632 5632 5633 5634 5635 5638 5642 5645 5646 5648 5649 5651 5651 5651 5650 5650 5650 5649 5650 5650 5649 5649 5648 5647 5646 5645 5645 5646 5646 5647 5647 5649 5650 5652 5654 5656 5658
5617 5620 5623 5624 5626 5626 5626 5627 5627 5628 5630 5631 5631 5632 5631 5631 5630 5630 5630 5631 5632 5635 5638 5641 5644 5646 5649 5650 5651 5651 5651 5651 5651 5651 5650 5651 5650 5649 5649 5649 5649 5648 5646 5646 5646 5647 5647 5649 5649 5649 5650 5652 5653 5654
5612 5615 5619 5621 5622 5622 5623 5624 5625 5625 5627 5627 5628 5628 5628 5628 5627 5628 5629 5630 5631 5634 5637 5641 5644 5646 5648 5650 5651 5652 5651 5651 5651 5651 5650 5650 5649 5647 5645 5645 5646 5646 5646 5646 5646 5646 5646 5646 5647 5648 5650 5651 5652 5653
5607 5611 5614 5616 5617 5619 5619 5621 5622 5623 5623 5624 5625 5625 5625 5625 5625 5626 5628 5629 5631 5633 5637 5640 5642 5645 5648 5650 5651 5652 5651 5650 5651 5650 5649 5649 5648 5646 5645 5643 5642 5641 5641 5642 5642 5643 5645 5645 5646 5647 5648 5649 5650 5650
5603 5607 5609 5612 5613 5615 5616 5617 5618 5619 5620 5621 5621 5621 5621 5622 5623 5625 5626 5628 5631 5634 5636 5639 5642 5645 5648 5649 5650 5650 5649 5650 5650 5650 5649 5648 5647 5647 5646 5645 5643 5642 5641 5640 5640 5641 5641 5642 5643 5643 5644 5644 5645 5646
5597 5602 5606 5608 5609 5611 5613 5614 5615 5617 5618 5618 5617 5617 5618 5620 5622 5624 5627 5628 5630 5633 5636 5639 5642 5644 5647 5647 5648 5650 5650 5651 5651 5649 5649 5648 5648 5648 5647 5646 5646 5645 5644 5643 5642 5642 5642 5643 5643 5643 5643 5643 5644 5644
5592 5598 5601 5604 5606 5608 5610 5612 5614 5614 5614 5614 5614 5615 5617 5619 5622 5624 5626 5628 5630 5632 5635 5638 5641 5643 5644 5644 5646 5648 5649 5650 5650 5650 5649 5648 5647 5647 5647 5647 5646 5645 5645 5644 5644 5644 5644 5644 5643 5643 5643 5642 5642 5641
5590 5595 5598 5601 5603 5606 5609 5610 5612 5612 5612 5612 5613 5614 5617 5619 5622 5624 5625 5628 5630 5632 5635 5638 5640 5642 5642 5644 5646 5647 5648 5649 5650 5650 5650 5650 5650 5649 5648 5647 5646 5646 5645 5645 5644 5644 5644 5643 5642 5642 5642 5642 5641 5640
5587 5592 5595 5598 5602 5605 5607 5609 5610 5610 5611 5612 5614 5616 5618 5620 5622 5624 5627 5629 5631 5633 5635 5637 5639 5641 5642 5644 5645 5646 5647 5649 5650 5650 5651 5651 5650 5650 5649 5647 5646 5645 5644 5643 5643 5642 5642 5641 5641 5641 5640 5638 5637 5636
5584 5589 5594 5599 5602 5605 5607 5608 5609 5611 5613 5614 5616 5618 5620 5622 5624 5627 5629 5631 5633 5634 5636 5638 5639 5641 5642 5644 5646 5647 5648 5649 5650 5650 5650 5650 5649 5649 5647 5646 5645 5644 5643 5643 5643 5642 5641 5640 5638 5637 5636 5634 5633 5632